owner,sensor,date,latitude,longitude,mass_concentration_of_chlorophyll_in_sea_water,qcFlag 
SCCF RECON,ioos:station:SCCF:53:1,2009-01-09T20:00:00Z,26.6493,-81.8810,4.4,1111122 
SCCF RECON,ioos:station:SCCF:53:1,2009-01-09T21:00:00Z,26.6493,-81.8810,3.88,1111122 
SCCF RECON,ioos:station:SCCF:53:1,2009-01-09T22:00:00Z,26.6493,-81.8810,3.76,1111122 
SCCF RECON,ioos:station:SCCF:53:1,2009-01-09T23:00:00Z,26.6493,-81.8810,4.58,1111122 
SCCF RECON,ioos:station:SCCF:53:1,2009-01-10T00:00:00Z,26.6493,-81.8810,4.92,1111122 
SCCF RECON,ioos:station:SCCF:53:1,2009-01-10T01:00:00Z,26.6493,-81.8810,8.03,1111122 
SCCF RECON,ioos:station:SCCF:53:1,2009-01-10T02:00:00Z,26.6493,-81.8810,7.58,1111122 
SCCF RECON,ioos:station:SCCF:53:1,2009-01-10T03:00:00Z,26.6493,-81.8810,5.51,1111122 
SCCF RECON,ioos:station:SCCF:53:1,2009-01-10T04:00:00Z,26.6493,-81.8810,5.33,1111122 
SCCF RECON,ioos:station:SCCF:53:1,2009-01-10T05:00:00Z,26.6493,-81.8810,4.76,1111122 
SCCF RECON,ioos:station:SCCF:53:1,2009-01-10T06:00:00Z,26.6493,-81.8810,5.04,1111122 
SCCF RECON,ioos:station:SCCF:53:1,2009-01-10T07:00:00Z,26.6493,-81.8810,5.91,1111122 
SCCF RECON,ioos:station:SCCF:53:1,2009-01-10T08:00:00Z,26.6493,-81.8810,5.89,1111122 
SCCF RECON,ioos:station:SCCF:53:1,2009-01-10T09:00:00Z,26.6493,-81.8810,7.9,1111122 
SCCF RECON,ioos:station:SCCF:53:1,2009-01-10T10:00:00Z,26.6493,-81.8810,5.77,1111122 
SCCF RECON,ioos:station:SCCF:53:1,2009-01-10T11:00:00Z,26.6493,-81.8810,6.97,1111122 
SCCF RECON,ioos:station:SCCF:53:1,2009-01-10T12:00:00Z,26.6493,-81.8810,5.1,1111122 
SCCF RECON,ioos:station:SCCF:53:1,2009-01-10T13:00:00Z,26.6493,-81.8810,6.03,1111122 
SCCF RECON,ioos:station:SCCF:53:1,2009-01-10T14:00:00Z,26.6493,-81.8810,6.51,1111122 
SCCF RECON,ioos:station:SCCF:53:1,2009-01-10T15:00:00Z,26.6493,-81.8810,6.53,1111122 
SCCF RECON,ioos:station:SCCF:53:1,2009-01-10T16:00:00Z,26.6493,-81.8810,4.88,1111122 
SCCF RECON,ioos:station:SCCF:53:1,2009-01-10T17:00:00Z,26.6493,-81.8810,4.25,1111122 
SCCF RECON,ioos:station:SCCF:53:1,2009-01-10T18:00:00Z,26.6493,-81.8810,3.94,1111122 
SCCF RECON,ioos:station:SCCF:53:1,2009-01-10T19:00:00Z,26.6493,-81.8810,4.0,1111122 
SCCF RECON,ioos:station:SCCF:53:1,2009-01-10T20:00:00Z,26.6493,-81.8810,3.76,1111122 
SCCF RECON,ioos:station:SCCF:53:1,2009-01-10T21:00:00Z,26.6493,-81.8810,4.32,1111122 
SCCF RECON,ioos:station:SCCF:53:1,2009-01-10T22:00:00Z,26.6493,-81.8810,3.77,1111122 
SCCF RECON,ioos:station:SCCF:53:1,2009-01-10T23:00:00Z,26.6493,-81.8810,6.51,1111122 
SCCF RECON,ioos:station:SCCF:53:1,2009-01-11T00:00:00Z,26.6493,-81.8810,7.15,1111122 
SCCF RECON,ioos:station:SCCF:53:1,2009-01-11T01:00:00Z,26.6493,-81.8810,8.91,1111122 
SCCF RECON,ioos:station:SCCF:53:1,2009-01-11T02:00:00Z,26.6493,-81.8810,7.79,1111122 
SCCF RECON,ioos:station:SCCF:53:1,2009-01-11T03:00:00Z,26.6493,-81.8810,4.9,1111122 
SCCF RECON,ioos:station:SCCF:53:1,2009-01-11T04:00:00Z,26.6493,-81.8810,5.62,1111122 
SCCF RECON,ioos:station:SCCF:53:1,2009-01-11T05:00:00Z,26.6493,-81.8810,5.22,1111122 
SCCF RECON,ioos:station:SCCF:53:1,2009-01-11T06:00:00Z,26.6493,-81.8810,4.79,1111122 
SCCF RECON,ioos:station:SCCF:53:1,2009-01-11T07:00:00Z,26.6493,-81.8810,6.37,1111122 
SCCF RECON,ioos:station:SCCF:53:1,2009-01-11T08:00:00Z,26.6493,-81.8810,5.49,1111122 
SCCF RECON,ioos:station:SCCF:53:1,2009-01-11T09:00:00Z,26.6493,-81.8810,5.5,1111122 
SCCF RECON,ioos:station:SCCF:53:1,2009-01-11T10:00:00Z,26.6493,-81.8810,5.19,1111122 
SCCF RECON,ioos:station:SCCF:53:1,2009-01-11T11:00:00Z,26.6493,-81.8810,4.73,1111122 
SCCF RECON,ioos:station:SCCF:53:1,2009-01-11T12:00:00Z,26.6493,-81.8810,4.89,1111122 
SCCF RECON,ioos:station:SCCF:53:1,2009-01-11T13:00:00Z,26.6493,-81.8810,4.78,1111122 
SCCF RECON,ioos:station:SCCF:53:1,2009-01-11T14:00:00Z,26.6493,-81.8810,4.32,1111122 
SCCF RECON,ioos:station:SCCF:53:1,2009-01-11T15:00:00Z,26.6493,-81.8810,3.67,1111122 
SCCF RECON,ioos:station:SCCF:53:1,2009-01-11T16:00:00Z,26.6493,-81.8810,3.83,1111122 
SCCF RECON,ioos:station:SCCF:53:1,2009-01-11T17:00:00Z,26.6493,-81.8810,3.76,1111122 
SCCF RECON,ioos:station:SCCF:53:1,2009-01-11T18:00:00Z,26.6493,-81.8810,3.57,1111122 
SCCF RECON,ioos:station:SCCF:53:1,2009-01-11T19:00:00Z,26.6493,-81.8810,3.63,1111122 
SCCF RECON,ioos:station:SCCF:53:1,2009-01-11T20:00:00Z,26.6493,-81.8810,4.0,1111122 
SCCF RECON,ioos:station:SCCF:53:1,2009-01-11T21:00:00Z,26.6493,-81.8810,4.31,1111122 
SCCF RECON,ioos:station:SCCF:53:1,2009-01-11T22:00:00Z,26.6493,-81.8810,4.93,1111122 
SCCF RECON,ioos:station:SCCF:53:1,2009-01-11T23:00:00Z,26.6493,-81.8810,5.83,1111122 
SCCF RECON,ioos:station:SCCF:53:1,2009-01-12T00:00:00Z,26.6493,-81.8810,6.62,1111122 
SCCF RECON,ioos:station:SCCF:53:1,2009-01-12T01:00:00Z,26.6493,-81.8810,5.82,1111122 
SCCF RECON,ioos:station:SCCF:53:1,2009-01-12T02:00:00Z,26.6493,-81.8810,6.8,1111122 
SCCF RECON,ioos:station:SCCF:53:1,2009-01-12T03:00:00Z,26.6493,-81.8810,4.78,1111122 
SCCF RECON,ioos:station:SCCF:53:1,2009-01-12T04:00:00Z,26.6493,-81.8810,5.86,1111122 
SCCF RECON,ioos:station:SCCF:53:1,2009-01-12T05:00:00Z,26.6493,-81.8810,3.59,1111122 
SCCF RECON,ioos:station:SCCF:53:1,2009-01-12T06:00:00Z,26.6493,-81.8810,3.82,1111122 
SCCF RECON,ioos:station:SCCF:53:1,2009-01-12T07:00:00Z,26.6493,-81.8810,3.55,1111122 
SCCF RECON,ioos:station:SCCF:53:1,2009-01-12T08:00:00Z,26.6493,-81.8810,4.21,1111122 
SCCF RECON,ioos:station:SCCF:53:1,2009-01-12T09:00:00Z,26.6493,-81.8810,4.56,1111122 
SCCF RECON,ioos:station:SCCF:53:1,2009-01-12T10:00:00Z,26.6493,-81.8810,4.57,1111122 
SCCF RECON,ioos:station:SCCF:53:1,2009-01-12T11:00:00Z,26.6493,-81.8810,4.19,1111122 
SCCF RECON,ioos:station:SCCF:53:1,2009-01-12T12:00:00Z,26.6493,-81.8810,4.06,1111122 
SCCF RECON,ioos:station:SCCF:53:1,2009-01-12T13:00:00Z,26.6493,-81.8810,3.59,1111122 
SCCF RECON,ioos:station:SCCF:53:1,2009-01-12T14:00:00Z,26.6493,-81.8810,3.21,1111122 
SCCF RECON,ioos:station:SCCF:53:1,2009-01-12T15:00:00Z,26.6493,-81.8810,3.05,1111122 
SCCF RECON,ioos:station:SCCF:53:1,2009-01-12T16:00:00Z,26.6493,-81.8810,2.97,1111122 
SCCF RECON,ioos:station:SCCF:53:1,2009-01-12T17:00:00Z,26.6493,-81.8810,3.08,1111122 
SCCF RECON,ioos:station:SCCF:53:1,2009-01-12T18:00:00Z,26.6493,-81.8810,4.13,1111122 
SCCF RECON,ioos:station:SCCF:53:1,2009-01-12T19:00:00Z,26.6493,-81.8810,3.38,1111122 
SCCF RECON,ioos:station:SCCF:53:1,2009-01-12T20:00:00Z,26.6493,-81.8810,3.33,1111122 
SCCF RECON,ioos:station:SCCF:53:1,2009-01-12T21:00:00Z,26.6493,-81.8810,3.4,1111122 
SCCF RECON,ioos:station:SCCF:53:1,2009-01-12T22:00:00Z,26.6493,-81.8810,3.51,1111122 
SCCF RECON,ioos:station:SCCF:53:1,2009-01-12T23:00:00Z,26.6493,-81.8810,3.92,1111122 
SCCF RECON,ioos:station:SCCF:53:1,2009-01-13T00:00:00Z,26.6493,-81.8810,10.18,1111122 
SCCF RECON,ioos:station:SCCF:53:1,2009-01-13T01:00:00Z,26.6493,-81.8810,9.59,1111122 
SCCF RECON,ioos:station:SCCF:53:1,2009-01-13T02:00:00Z,26.6493,-81.8810,17.14,1111122 
SCCF RECON,ioos:station:SCCF:53:1,2009-01-13T03:00:00Z,26.6493,-81.8810,5.28,1111122 
SCCF RECON,ioos:station:SCCF:53:1,2009-01-13T04:00:00Z,26.6493,-81.8810,6.81,1111122 
SCCF RECON,ioos:station:SCCF:53:1,2009-01-13T05:00:00Z,26.6493,-81.8810,4.27,1111122 
SCCF RECON,ioos:station:SCCF:53:1,2009-01-13T06:00:00Z,26.6493,-81.8810,3.83,1111122 
SCCF RECON,ioos:station:SCCF:53:1,2009-01-13T07:00:00Z,26.6493,-81.8810,3.8,1111122 
SCCF RECON,ioos:station:SCCF:53:1,2009-01-13T08:00:00Z,26.6493,-81.8810,3.38,1111122 
SCCF RECON,ioos:station:SCCF:53:1,2009-01-13T09:00:00Z,26.6493,-81.8810,3.17,1111122 
SCCF RECON,ioos:station:SCCF:53:1,2009-01-13T10:00:00Z,26.6493,-81.8810,3.23,1111122 
SCCF RECON,ioos:station:SCCF:53:1,2009-01-13T11:00:00Z,26.6493,-81.8810,3.75,1111122 
SCCF RECON,ioos:station:SCCF:53:1,2009-01-13T12:00:00Z,26.6493,-81.8810,3.38,1111122 
SCCF RECON,ioos:station:SCCF:53:1,2009-01-13T13:00:00Z,26.6493,-81.8810,3.18,1111122 
SCCF RECON,ioos:station:SCCF:53:1,2009-01-13T14:00:00Z,26.6493,-81.8810,3.03,1111122 
SCCF RECON,ioos:station:SCCF:53:1,2009-01-13T15:00:00Z,26.6493,-81.8810,2.77,1111122 
SCCF RECON,ioos:station:SCCF:53:1,2009-01-13T16:00:00Z,26.6493,-81.8810,2.66,1111122 
SCCF RECON,ioos:station:SCCF:53:1,2009-01-13T17:00:00Z,26.6493,-81.8810,2.81,1111122 
SCCF RECON,ioos:station:SCCF:53:1,2009-01-13T18:00:00Z,26.6493,-81.8810,2.88,1111122 
SCCF RECON,ioos:station:SCCF:53:1,2009-01-13T19:00:00Z,26.6493,-81.8810,3.07,1111122 
SCCF RECON,ioos:station:SCCF:53:1,2009-01-13T20:00:00Z,26.6493,-81.8810,4.56,1111122 
SCCF RECON,ioos:station:SCCF:53:1,2009-01-13T21:00:00Z,26.6493,-81.8810,4.73,1111122 
SCCF RECON,ioos:station:SCCF:53:1,2009-01-13T22:00:00Z,26.6493,-81.8810,3.94,1111122 
SCCF RECON,ioos:station:SCCF:53:1,2009-01-13T23:00:00Z,26.6493,-81.8810,4.28,1111122 
SCCF RECON,ioos:station:SCCF:53:1,2009-01-14T00:00:00Z,26.6493,-81.8810,3.89,1111122 
SCCF RECON,ioos:station:SCCF:53:1,2009-01-14T01:00:00Z,26.6493,-81.8810,4.24,1111122 
SCCF RECON,ioos:station:SCCF:53:1,2009-01-14T02:00:00Z,26.6493,-81.8810,3.99,1111122 
SCCF RECON,ioos:station:SCCF:53:1,2009-01-14T03:00:00Z,26.6493,-81.8810,3.87,1111122 
SCCF RECON,ioos:station:SCCF:53:1,2009-01-14T04:00:00Z,26.6493,-81.8810,4.35,1111122 
SCCF RECON,ioos:station:SCCF:53:1,2009-01-14T05:00:00Z,26.6493,-81.8810,3.73,1111122 
SCCF RECON,ioos:station:SCCF:53:1,2009-01-14T06:00:00Z,26.6493,-81.8810,4.54,1111122 
SCCF RECON,ioos:station:SCCF:53:1,2009-01-14T07:00:00Z,26.6493,-81.8810,6.69,1111122 
SCCF RECON,ioos:station:SCCF:53:1,2009-01-14T08:00:00Z,26.6493,-81.8810,4.03,1111122 
SCCF RECON,ioos:station:SCCF:53:1,2009-01-14T09:00:00Z,26.6493,-81.8810,3.5,1111122 
SCCF RECON,ioos:station:SCCF:53:1,2009-01-14T10:00:00Z,26.6493,-81.8810,4.09,1111122 
SCCF RECON,ioos:station:SCCF:53:1,2009-01-14T11:00:00Z,26.6493,-81.8810,3.54,1111122 
SCCF RECON,ioos:station:SCCF:53:1,2009-01-14T12:00:00Z,26.6493,-81.8810,4.25,1111122 
SCCF RECON,ioos:station:SCCF:53:1,2009-01-14T13:00:00Z,26.6493,-81.8810,3.88,1111122 
SCCF RECON,ioos:station:SCCF:53:1,2009-01-14T14:00:00Z,26.6493,-81.8810,4.94,1111122 
SCCF RECON,ioos:station:SCCF:53:1,2009-01-14T15:00:00Z,26.6493,-81.8810,3.23,1111122 
SCCF RECON,ioos:station:SCCF:53:1,2009-01-14T16:00:00Z,26.6493,-81.8810,3.0,1111122 
SCCF RECON,ioos:station:SCCF:53:1,2009-01-14T17:00:00Z,26.6493,-81.8810,4.24,1111122 
SCCF RECON,ioos:station:SCCF:53:1,2009-01-14T18:00:00Z,26.6493,-81.8810,3.76,1111122 
SCCF RECON,ioos:station:SCCF:53:1,2009-01-14T19:00:00Z,26.6493,-81.8810,3.08,1111122 
SCCF RECON,ioos:station:SCCF:53:1,2009-01-14T20:00:00Z,26.6493,-81.8810,2.9,1111122 
SCCF RECON,ioos:station:SCCF:53:1,2009-01-14T21:00:00Z,26.6493,-81.8810,2.94,1111122 
SCCF RECON,ioos:station:SCCF:53:1,2009-01-14T22:00:00Z,26.6493,-81.8810,3.18,1111122 
SCCF RECON,ioos:station:SCCF:53:1,2009-01-14T23:00:00Z,26.6493,-81.8810,3.19,1111122 
SCCF RECON,ioos:station:SCCF:53:1,2009-01-15T00:00:00Z,26.6493,-81.8810,3.77,1111122 
SCCF RECON,ioos:station:SCCF:53:1,2009-01-15T01:00:00Z,26.6493,-81.8810,3.6,1111122 
SCCF RECON,ioos:station:SCCF:53:1,2009-01-15T02:00:00Z,26.6493,-81.8810,3.52,1111122 
SCCF RECON,ioos:station:SCCF:53:1,2009-01-15T03:00:00Z,26.6493,-81.8810,3.96,1111122 
SCCF RECON,ioos:station:SCCF:53:1,2009-01-15T04:00:00Z,26.6493,-81.8810,5.61,1111122 
SCCF RECON,ioos:station:SCCF:53:1,2009-01-15T05:00:00Z,26.6493,-81.8810,3.6,1111122 
SCCF RECON,ioos:station:SCCF:53:1,2009-01-15T06:00:00Z,26.6493,-81.8810,3.47,1111122 
SCCF RECON,ioos:station:SCCF:53:1,2009-01-15T07:00:00Z,26.6493,-81.8810,4.74,1111122 
SCCF RECON,ioos:station:SCCF:53:1,2009-01-15T08:00:00Z,26.6493,-81.8810,3.93,1111122 
SCCF RECON,ioos:station:SCCF:53:1,2009-01-15T09:00:00Z,26.6493,-81.8810,3.44,1111122 
SCCF RECON,ioos:station:SCCF:53:1,2009-01-15T10:00:00Z,26.6493,-81.8810,3.27,1111122 
SCCF RECON,ioos:station:SCCF:53:1,2009-01-15T11:00:00Z,26.6493,-81.8810,3.13,1111122 
SCCF RECON,ioos:station:SCCF:53:1,2009-01-15T12:00:00Z,26.6493,-81.8810,3.0,1111122 
SCCF RECON,ioos:station:SCCF:53:1,2009-01-15T13:00:00Z,26.6493,-81.8810,3.28,1111122 
SCCF RECON,ioos:station:SCCF:53:1,2009-01-15T14:00:00Z,26.6493,-81.8810,3.54,1111122 
SCCF RECON,ioos:station:SCCF:53:1,2009-01-15T15:00:00Z,26.6493,-81.8810,3.52,1111122 
SCCF RECON,ioos:station:SCCF:53:1,2009-01-15T16:00:00Z,26.6493,-81.8810,4.28,1111122 
SCCF RECON,ioos:station:SCCF:53:1,2009-01-15T17:00:00Z,26.6493,-81.8810,4.24,1111122 
SCCF RECON,ioos:station:SCCF:53:1,2009-01-15T18:00:00Z,26.6493,-81.8810,4.82,1111122 
SCCF RECON,ioos:station:SCCF:53:1,2009-01-15T19:00:00Z,26.6493,-81.8810,4.35,1111122 
SCCF RECON,ioos:station:SCCF:53:1,2009-01-15T20:00:00Z,26.6493,-81.8810,3.86,1111122 
SCCF RECON,ioos:station:SCCF:53:1,2009-01-15T21:00:00Z,26.6493,-81.8810,3.29,1111122 
SCCF RECON,ioos:station:SCCF:53:1,2009-01-15T22:00:00Z,26.6493,-81.8810,4.06,1111122 
SCCF RECON,ioos:station:SCCF:53:1,2009-01-15T23:00:00Z,26.6493,-81.8810,3.69,1111122 
SCCF RECON,ioos:station:SCCF:53:1,2009-01-16T00:00:00Z,26.6493,-81.8810,4.03,1111122 
SCCF RECON,ioos:station:SCCF:53:1,2009-01-16T01:00:00Z,26.6493,-81.8810,3.81,1111122 
SCCF RECON,ioos:station:SCCF:53:1,2009-01-16T02:00:00Z,26.6493,-81.8810,3.6,1111122 
SCCF RECON,ioos:station:SCCF:53:1,2009-01-16T03:00:00Z,26.6493,-81.8810,4.77,1111122 
SCCF RECON,ioos:station:SCCF:53:1,2009-01-16T04:00:00Z,26.6493,-81.8810,6.15,1111122 
SCCF RECON,ioos:station:SCCF:53:1,2009-01-16T05:00:00Z,26.6493,-81.8810,5.14,1111122 
SCCF RECON,ioos:station:SCCF:53:1,2009-01-16T06:00:00Z,26.6493,-81.8810,4.59,1111122 
SCCF RECON,ioos:station:SCCF:53:1,2009-01-16T07:00:00Z,26.6493,-81.8810,5.57,1111122 
SCCF RECON,ioos:station:SCCF:53:1,2009-01-16T08:00:00Z,26.6493,-81.8810,4.09,1111122 
SCCF RECON,ioos:station:SCCF:53:1,2009-01-16T09:00:00Z,26.6493,-81.8810,3.99,1111122 
SCCF RECON,ioos:station:SCCF:53:1,2009-01-16T10:00:00Z,26.6493,-81.8810,4.19,1111122 
SCCF RECON,ioos:station:SCCF:53:1,2009-01-16T11:00:00Z,26.6493,-81.8810,4.41,1111122 
SCCF RECON,ioos:station:SCCF:53:1,2009-01-16T12:00:00Z,26.6493,-81.8810,4.25,1111122 
SCCF RECON,ioos:station:SCCF:53:1,2009-01-16T13:00:00Z,26.6493,-81.8810,4.15,1111122 
SCCF RECON,ioos:station:SCCF:53:1,2009-01-16T14:00:00Z,26.6493,-81.8810,3.82,1111122 
SCCF RECON,ioos:station:SCCF:53:1,2009-01-16T15:00:00Z,26.6493,-81.8810,4.66,1111122 
SCCF RECON,ioos:station:SCCF:53:1,2009-01-16T16:00:00Z,26.6493,-81.8810,4.85,1111122 
SCCF RECON,ioos:station:SCCF:53:1,2009-01-16T17:00:00Z,26.6493,-81.8810,4.61,1111122 
SCCF RECON,ioos:station:SCCF:53:1,2009-01-16T18:00:00Z,26.6493,-81.8810,4.99,1111122 
SCCF RECON,ioos:station:SCCF:53:1,2009-01-16T19:00:00Z,26.6493,-81.8810,4.49,1111122 
SCCF RECON,ioos:station:SCCF:53:1,2009-01-16T20:00:00Z,26.6493,-81.8810,4.81,1111122 
SCCF RECON,ioos:station:SCCF:53:1,2009-01-16T21:00:00Z,26.6493,-81.8810,4.61,1111122 
SCCF RECON,ioos:station:SCCF:53:1,2009-01-16T22:00:00Z,26.6493,-81.8810,4.08,1111122 
SCCF RECON,ioos:station:SCCF:53:1,2009-01-16T23:00:00Z,26.6493,-81.8810,4.07,1111122 
SCCF RECON,ioos:station:SCCF:53:1,2009-01-17T00:00:00Z,26.6493,-81.8810,3.88,1111122 
SCCF RECON,ioos:station:SCCF:53:1,2009-01-17T01:00:00Z,26.6493,-81.8810,4.62,1111122 
SCCF RECON,ioos:station:SCCF:53:1,2009-01-17T02:00:00Z,26.6493,-81.8810,3.88,1111122 
SCCF RECON,ioos:station:SCCF:53:1,2009-01-17T03:00:00Z,26.6493,-81.8810,3.98,1111122 
SCCF RECON,ioos:station:SCCF:53:1,2009-01-17T04:00:00Z,26.6493,-81.8810,4.48,1111122 
SCCF RECON,ioos:station:SCCF:53:1,2009-01-17T05:00:00Z,26.6493,-81.8810,5.74,1111122 
SCCF RECON,ioos:station:SCCF:53:1,2009-01-17T06:00:00Z,26.6493,-81.8810,5.08,1111122 
SCCF RECON,ioos:station:SCCF:53:1,2009-01-17T07:00:00Z,26.6493,-81.8810,4.91,1111122 
SCCF RECON,ioos:station:SCCF:53:1,2009-01-17T08:00:00Z,26.6493,-81.8810,5.17,1111122 
SCCF RECON,ioos:station:SCCF:53:1,2009-01-17T09:00:00Z,26.6493,-81.8810,5.04,1111122 
SCCF RECON,ioos:station:SCCF:53:1,2009-01-17T10:00:00Z,26.6493,-81.8810,4.87,1111122 
SCCF RECON,ioos:station:SCCF:53:1,2009-01-17T11:00:00Z,26.6493,-81.8810,4.83,1111122 
SCCF RECON,ioos:station:SCCF:53:1,2009-01-17T12:00:00Z,26.6493,-81.8810,4.92,1111122 
SCCF RECON,ioos:station:SCCF:53:1,2009-01-17T13:00:00Z,26.6493,-81.8810,4.15,1111122 
SCCF RECON,ioos:station:SCCF:53:1,2009-01-17T14:00:00Z,26.6493,-81.8810,3.67,1111122 
SCCF RECON,ioos:station:SCCF:53:1,2009-01-17T15:00:00Z,26.6493,-81.8810,6.38,1111122 
SCCF RECON,ioos:station:SCCF:53:1,2009-01-17T16:00:00Z,26.6493,-81.8810,5.22,1111122 
SCCF RECON,ioos:station:SCCF:53:1,2009-01-17T17:00:00Z,26.6493,-81.8810,4.66,1111122 
SCCF RECON,ioos:station:SCCF:53:1,2009-01-17T18:00:00Z,26.6493,-81.8810,7.36,1111122 
SCCF RECON,ioos:station:SCCF:53:1,2009-01-17T19:00:00Z,26.6493,-81.8810,5.89,1111122 
SCCF RECON,ioos:station:SCCF:53:1,2009-01-17T20:00:00Z,26.6493,-81.8810,7.14,1111122 
SCCF RECON,ioos:station:SCCF:53:1,2009-01-17T21:00:00Z,26.6493,-81.8810,5.83,1111122 
SCCF RECON,ioos:station:SCCF:53:1,2009-01-17T22:00:00Z,26.6493,-81.8810,4.55,1111122 
SCCF RECON,ioos:station:SCCF:53:1,2009-01-17T23:00:00Z,26.6493,-81.8810,3.82,1111122 
SCCF RECON,ioos:station:SCCF:53:1,2009-01-18T00:00:00Z,26.6493,-81.8810,3.33,1111122 
SCCF RECON,ioos:station:SCCF:53:1,2009-01-18T01:00:00Z,26.6493,-81.8810,3.29,1111122 
SCCF RECON,ioos:station:SCCF:53:1,2009-01-18T02:00:00Z,26.6493,-81.8810,3.61,1111122 
SCCF RECON,ioos:station:SCCF:53:1,2009-01-18T03:00:00Z,26.6493,-81.8810,3.64,1111122 
SCCF RECON,ioos:station:SCCF:53:1,2009-01-18T04:00:00Z,26.6493,-81.8810,3.83,1111122 
SCCF RECON,ioos:station:SCCF:53:1,2009-01-18T05:00:00Z,26.6493,-81.8810,3.74,1111122 
SCCF RECON,ioos:station:SCCF:53:1,2009-01-18T06:00:00Z,26.6493,-81.8810,3.32,1111122 
SCCF RECON,ioos:station:SCCF:53:1,2009-01-18T07:00:00Z,26.6493,-81.8810,3.33,1111122 
SCCF RECON,ioos:station:SCCF:53:1,2009-01-18T08:00:00Z,26.6493,-81.8810,3.27,1111122 
SCCF RECON,ioos:station:SCCF:53:1,2009-01-18T09:00:00Z,26.6493,-81.8810,3.29,1111122 
SCCF RECON,ioos:station:SCCF:53:1,2009-01-18T10:00:00Z,26.6493,-81.8810,3.53,1111122 
SCCF RECON,ioos:station:SCCF:53:1,2009-01-18T11:00:00Z,26.6493,-81.8810,3.89,1111122 
SCCF RECON,ioos:station:SCCF:53:1,2009-01-18T12:00:00Z,26.6493,-81.8810,3.58,1111122 
SCCF RECON,ioos:station:SCCF:53:1,2009-01-18T13:00:00Z,26.6493,-81.8810,3.11,1111122 
SCCF RECON,ioos:station:SCCF:53:1,2009-01-18T14:00:00Z,26.6493,-81.8810,3.03,1111122 
SCCF RECON,ioos:station:SCCF:53:1,2009-01-18T15:00:00Z,26.6493,-81.8810,3.81,1111122 
SCCF RECON,ioos:station:SCCF:53:1,2009-01-18T16:00:00Z,26.6493,-81.8810,3.72,1111122 
SCCF RECON,ioos:station:SCCF:53:1,2009-01-18T17:00:00Z,26.6493,-81.8810,3.48,1111122 
SCCF RECON,ioos:station:SCCF:53:1,2009-01-18T18:00:00Z,26.6493,-81.8810,4.26,1111122 
SCCF RECON,ioos:station:SCCF:53:1,2009-01-18T19:00:00Z,26.6493,-81.8810,3.13,1111122 
SCCF RECON,ioos:station:SCCF:53:1,2009-01-18T20:00:00Z,26.6493,-81.8810,3.25,1111122 
SCCF RECON,ioos:station:SCCF:53:1,2009-01-18T21:00:00Z,26.6493,-81.8810,3.34,1111122 
SCCF RECON,ioos:station:SCCF:53:1,2009-01-18T22:00:00Z,26.6493,-81.8810,3.38,1111122 
SCCF RECON,ioos:station:SCCF:53:1,2009-01-18T23:00:00Z,26.6493,-81.8810,4.06,1111122 
SCCF RECON,ioos:station:SCCF:53:1,2009-01-19T00:00:00Z,26.6493,-81.8810,4.19,1111122 
SCCF RECON,ioos:station:SCCF:53:1,2009-01-19T01:00:00Z,26.6493,-81.8810,4.12,1111122 
SCCF RECON,ioos:station:SCCF:53:1,2009-01-19T02:00:00Z,26.6493,-81.8810,4.09,1111122 
SCCF RECON,ioos:station:SCCF:53:1,2009-01-19T03:00:00Z,26.6493,-81.8810,4.0,1111122 
SCCF RECON,ioos:station:SCCF:53:1,2009-01-19T04:00:00Z,26.6493,-81.8810,3.76,1111122 
SCCF RECON,ioos:station:SCCF:53:1,2009-01-19T05:00:00Z,26.6493,-81.8810,6.07,1111122 
SCCF RECON,ioos:station:SCCF:53:1,2009-01-19T06:00:00Z,26.6493,-81.8810,3.78,1111122 
SCCF RECON,ioos:station:SCCF:53:1,2009-01-19T07:00:00Z,26.6493,-81.8810,3.9,1111122 
SCCF RECON,ioos:station:SCCF:53:1,2009-01-19T08:00:00Z,26.6493,-81.8810,3.53,1111122 
SCCF RECON,ioos:station:SCCF:53:1,2009-01-19T09:00:00Z,26.6493,-81.8810,3.55,1111122 
SCCF RECON,ioos:station:SCCF:53:1,2009-01-19T10:00:00Z,26.6493,-81.8810,3.34,1111122 
SCCF RECON,ioos:station:SCCF:53:1,2009-01-19T11:00:00Z,26.6493,-81.8810,4.41,1111122 
SCCF RECON,ioos:station:SCCF:53:1,2009-01-19T12:00:00Z,26.6493,-81.8810,3.49,1111122 
SCCF RECON,ioos:station:SCCF:53:1,2009-01-19T13:00:00Z,26.6493,-81.8810,3.55,1111122 
SCCF RECON,ioos:station:SCCF:53:1,2009-01-19T14:00:00Z,26.6493,-81.8810,3.22,1111122 
SCCF RECON,ioos:station:SCCF:53:1,2009-01-19T15:00:00Z,26.6493,-81.8810,3.22,1111122 
SCCF RECON,ioos:station:SCCF:53:1,2009-01-19T16:00:00Z,26.6493,-81.8810,3.24,1111122 
SCCF RECON,ioos:station:SCCF:53:1,2009-01-19T17:00:00Z,26.6493,-81.8810,3.31,1111122 
SCCF RECON,ioos:station:SCCF:53:1,2009-01-19T18:00:00Z,26.6493,-81.8810,3.73,1111122 
SCCF RECON,ioos:station:SCCF:53:1,2009-01-19T19:00:00Z,26.6493,-81.8810,4.52,1111122 
SCCF RECON,ioos:station:SCCF:53:1,2009-01-19T20:00:00Z,26.6493,-81.8810,4.23,1111122 
SCCF RECON,ioos:station:SCCF:53:1,2009-01-19T21:00:00Z,26.6493,-81.8810,4.86,1111122 
SCCF RECON,ioos:station:SCCF:53:1,2009-01-19T22:00:00Z,26.6493,-81.8810,5.25,1111122 
SCCF RECON,ioos:station:SCCF:53:1,2009-01-19T23:00:00Z,26.6493,-81.8810,5.08,1111122 
SCCF RECON,ioos:station:SCCF:53:1,2009-01-20T00:00:00Z,26.6493,-81.8810,5.15,1111122 
SCCF RECON,ioos:station:SCCF:53:1,2009-01-20T01:00:00Z,26.6493,-81.8810,5.25,1111122 
SCCF RECON,ioos:station:SCCF:53:1,2009-01-20T02:00:00Z,26.6493,-81.8810,5.34,1111122 
SCCF RECON,ioos:station:SCCF:53:1,2009-01-20T03:00:00Z,26.6493,-81.8810,5.2,1111122 
SCCF RECON,ioos:station:SCCF:53:1,2009-01-20T04:00:00Z,26.6493,-81.8810,5.26,1111122 
SCCF RECON,ioos:station:SCCF:53:1,2009-01-20T05:00:00Z,26.6493,-81.8810,4.87,1111122 
SCCF RECON,ioos:station:SCCF:53:1,2009-01-20T06:00:00Z,26.6493,-81.8810,4.72,1111122 
SCCF RECON,ioos:station:SCCF:53:1,2009-01-20T07:00:00Z,26.6493,-81.8810,4.59,1111122 
SCCF RECON,ioos:station:SCCF:53:1,2009-01-20T08:00:00Z,26.6493,-81.8810,4.23,1111122 
SCCF RECON,ioos:station:SCCF:53:1,2009-01-20T09:00:00Z,26.6493,-81.8810,4.41,1111122 
SCCF RECON,ioos:station:SCCF:53:1,2009-01-20T10:00:00Z,26.6493,-81.8810,4.04,1111122 
SCCF RECON,ioos:station:SCCF:53:1,2009-01-20T11:00:00Z,26.6493,-81.8810,7.75,1111122 
SCCF RECON,ioos:station:SCCF:53:1,2009-01-20T12:00:00Z,26.6493,-81.8810,8.09,1111122 
SCCF RECON,ioos:station:SCCF:53:1,2009-01-20T13:00:00Z,26.6493,-81.8810,6.75,1111122 
SCCF RECON,ioos:station:SCCF:53:1,2009-01-20T14:00:00Z,26.6493,-81.8810,6.79,1111122 
SCCF RECON,ioos:station:SCCF:53:1,2009-01-20T15:00:00Z,26.6493,-81.8810,5.51,1111122 
SCCF RECON,ioos:station:SCCF:53:1,2009-01-20T16:00:00Z,26.6493,-81.8810,4.44,1111122 
SCCF RECON,ioos:station:SCCF:53:1,2009-01-20T17:00:00Z,26.6493,-81.8810,4.35,1111122 
SCCF RECON,ioos:station:SCCF:53:1,2009-01-20T18:00:00Z,26.6493,-81.8810,5.27,1111122 
SCCF RECON,ioos:station:SCCF:53:1,2009-01-20T19:00:00Z,26.6493,-81.8810,3.51,1111122 
SCCF RECON,ioos:station:SCCF:53:1,2009-01-20T20:00:00Z,26.6493,-81.8810,4.9,1111122 
SCCF RECON,ioos:station:SCCF:53:1,2009-01-20T21:00:00Z,26.6493,-81.8810,6.09,1111122 
SCCF RECON,ioos:station:SCCF:53:1,2009-01-20T22:00:00Z,26.6493,-81.8810,3.53,1111122 
SCCF RECON,ioos:station:SCCF:53:1,2009-01-20T23:00:00Z,26.6493,-81.8810,5.14,1111122 
SCCF RECON,ioos:station:SCCF:53:1,2009-01-21T00:00:00Z,26.6493,-81.8810,6.05,1111122 
SCCF RECON,ioos:station:SCCF:53:1,2009-01-21T01:00:00Z,26.6493,-81.8810,12.24,1111122 
SCCF RECON,ioos:station:SCCF:53:1,2009-01-21T02:00:00Z,26.6493,-81.8810,9.06,1111122 
SCCF RECON,ioos:station:SCCF:53:1,2009-01-21T03:00:00Z,26.6493,-81.8810,7.11,1111122 
SCCF RECON,ioos:station:SCCF:53:1,2009-01-21T04:00:00Z,26.6493,-81.8810,5.39,1111122 
SCCF RECON,ioos:station:SCCF:53:1,2009-01-21T05:00:00Z,26.6493,-81.8810,6.37,1111122 
SCCF RECON,ioos:station:SCCF:53:1,2009-01-21T06:00:00Z,26.6493,-81.8810,5.6,1111122 
SCCF RECON,ioos:station:SCCF:53:1,2009-01-21T07:00:00Z,26.6493,-81.8810,9.21,1111122 
SCCF RECON,ioos:station:SCCF:53:1,2009-01-21T08:00:00Z,26.6493,-81.8810,6.32,1111122 
SCCF RECON,ioos:station:SCCF:53:1,2009-01-21T09:00:00Z,26.6493,-81.8810,6.48,1111122 